UAL132 PKMJ-PKWA

Flight info

Callsign UAL132
Flight time 0h 45m
Altitude 30000
Route OREEO
Aircraft B38M/M-SDE1FGHILORVWXY/HB1

Departure

Time 2026-04-29 00:32
Airport Marshall Islands International Airport (PKMJ)

Arrival

Time 2026-04-29 01:17
Airport Bucholz Army Air Field (PKWA)
Time Latitude Longitude Altitude Speed Heading
2026-04-28 23:58 7.06826 171.28102 8 ft 0 kts 76°
2026-04-29 00:20 7.06828 171.28111 7 ft 3 kts 76°
2026-04-29 00:20 7.06830 171.28117 7 ft 0 kts 75°
2026-04-29 00:21 7.06833 171.28129 9 ft 3 kts 75°
2026-04-29 00:22 7.06835 171.28140 8 ft 0 kts 76°
2026-04-29 00:23 7.06836 171.28140 8 ft 0 kts 76°
2026-04-29 00:23 7.06836 171.28141 8 ft 0 kts 76°
2026-04-29 00:23 7.06836 171.28144 6 ft 2 kts 76°
2026-04-29 00:23 7.06842 171.28166 7 ft 4 kts 75°
2026-04-29 00:24 7.06841 171.28196 9 ft 3 kts 124°
2026-04-29 00:24 7.06835 171.28200 9 ft 0 kts 141°
2026-04-29 00:28 7.06829 171.28205 8 ft 3 kts 146°
2026-04-29 00:28 7.06789 171.28218 7 ft 11 kts 170°
2026-04-29 00:29 7.06723 171.28143 6 ft 23 kts 257°
2026-04-29 00:29 7.06682 171.27962 3 ft 29 kts 257°
2026-04-29 00:29 7.06635 171.27764 5 ft 30 kts 256°
2026-04-29 00:29 7.06583 171.27547 3 ft 33 kts 257°
2026-04-29 00:30 7.06527 171.27315 4 ft 35 kts 256°
2026-04-29 00:30 7.06488 171.27152 5 ft 36 kts 256°
2026-04-29 00:30 7.06405 171.26819 1 ft 39 kts 256°
2026-04-29 00:30 7.06342 171.26555 1 ft 37 kts 256°
2026-04-29 00:31 7.06286 171.26327 0 ft 24 kts 256°
2026-04-29 00:31 7.06275 171.26196 1 ft 13 kts 279°
2026-04-29 00:31 7.06262 171.26173 1 ft 2 kts 168°
2026-04-29 00:31 7.06256 171.26189 1 ft 5 kts 95°
2026-04-29 00:32 7.06275 171.26285 1 ft 36 kts 77°
2026-04-29 00:32 7.06403 171.26806 1 ft 114 kts 76°
2026-04-29 00:32 7.06641 171.27776 172 ft 159 kts 78°
2026-04-29 00:32 7.06878 171.28869 803 ft 159 kts 75°
2026-04-29 00:33 7.07148 171.29932 1340 ft 161 kts 75°
2026-04-29 00:33 7.07701 171.30949 1973 ft 174 kts 47°
2026-04-29 00:33 7.08832 171.31506 2664 ft 195 kts 11°
2026-04-29 00:33 7.10264 171.31241 3290 ft 228 kts 335°
2026-04-29 00:34 7.11415 171.30056 4030 ft 252 kts 300°
2026-04-29 00:34 7.12042 171.28401 4987 ft 252 kts 290°
2026-04-29 00:34 7.12674 171.26727 5890 ft 264 kts 295°
2026-04-29 00:34 7.13430 171.24964 6497 ft 283 kts 294°
2026-04-29 00:35 7.14215 171.23089 7172 ft 297 kts 293°
2026-04-29 00:35 7.15011 171.21152 8046 ft 301 kts 292°
2026-04-29 00:35 7.15807 171.19193 9004 ft 303 kts 291°
2026-04-29 00:35 7.16605 171.17218 9979 ft 303 kts 291°
2026-04-29 00:36 7.17414 171.15212 10635 ft 317 kts 291°
2026-04-29 00:36 7.18255 171.13123 11177 ft 332 kts 291°
2026-04-29 00:36 7.19135 171.10933 11887 ft 338 kts 291°
2026-04-29 00:36 7.20020 171.08731 12797 ft 340 kts 291°
2026-04-29 00:37 7.20911 171.06514 13642 ft 344 kts 291°
2026-04-29 00:37 7.21818 171.04256 14347 ft 349 kts 290°
2026-04-29 00:37 7.22726 171.01995 15003 ft 356 kts 290°
2026-04-29 00:37 7.23661 170.99668 15720 ft 359 kts 291°
2026-04-29 00:38 7.24603 170.97324 16467 ft 363 kts 291°
2026-04-29 00:38 7.25562 170.94937 17024 ft 372 kts 291°
2026-04-29 00:38 7.26535 170.92515 17761 ft 373 kts 291°
2026-04-29 00:38 7.27500 170.90109 18373 ft 378 kts 292°
2026-04-29 00:39 7.28488 170.87646 18950 ft 381 kts 292°
2026-04-29 00:39 7.29490 170.85147 19432 ft 386 kts 292°
2026-04-29 00:39 7.30497 170.82638 20083 ft 386 kts 292°
2026-04-29 00:39 7.31507 170.80119 20642 ft 389 kts 292°
2026-04-29 00:40 7.32528 170.77573 21149 ft 394 kts 292°
2026-04-29 00:40 7.33549 170.75026 21664 ft 397 kts 292°
2026-04-29 00:40 7.34585 170.72441 22228 ft 400 kts 293°
2026-04-29 00:40 7.35638 170.69815 22649 ft 407 kts 293°
2026-04-29 00:41 7.36699 170.67166 23257 ft 407 kts 292°
2026-04-29 00:41 7.37401 170.65413 23632 ft 408 kts 292°
2026-04-29 00:41 7.38836 170.61831 24163 ft 414 kts 292°
2026-04-29 00:41 7.39911 170.59146 24697 ft 413 kts 293°
2026-04-29 00:42 7.40982 170.56472 25093 ft 418 kts 292°
2026-04-29 00:42 7.42072 170.53749 25513 ft 421 kts 292°
2026-04-29 00:42 7.43173 170.50996 25996 ft 423 kts 292°
2026-04-29 00:42 7.44279 170.48233 26393 ft 427 kts 292°
2026-04-29 00:43 7.45386 170.45440 26786 ft 430 kts 292°
2026-04-29 00:43 7.46495 170.42636 27290 ft 431 kts 292°
2026-04-29 00:43 7.47598 170.39850 27655 ft 435 kts 292°
2026-04-29 00:43 7.48722 170.37011 28139 ft 435 kts 292°
2026-04-29 00:44 7.49848 170.34168 28542 ft 439 kts 292°
2026-04-29 00:44 7.50988 170.31287 28818 ft 444 kts 292°
2026-04-29 00:44 7.52133 170.28392 29281 ft 445 kts 292°
2026-04-29 00:44 7.53286 170.25474 29582 ft 450 kts 292°
2026-04-29 00:45 7.54058 170.23524 29829 ft 452 kts 292°
2026-04-29 00:45 7.56806 170.16570 29893 ft 461 kts 292°
2026-04-29 00:46 7.58795 170.11536 29896 ft 462 kts 291°
2026-04-29 00:46 7.61157 170.05555 29895 ft 464 kts 291°
2026-04-29 00:47 7.63538 169.99524 29896 ft 462 kts 291°
2026-04-29 00:47 7.65913 169.93505 29897 ft 461 kts 291°
2026-04-29 00:48 7.68288 169.87481 29900 ft 462 kts 291°
2026-04-29 00:48 7.70652 169.81486 29899 ft 462 kts 291°
2026-04-29 00:49 7.73029 169.75453 29898 ft 461 kts 291°
2026-04-29 00:49 7.75385 169.69470 29897 ft 462 kts 291°
2026-04-29 00:50 7.77759 169.63440 29892 ft 462 kts 291°
2026-04-29 00:50 7.80131 169.57413 29894 ft 462 kts 291°
2026-04-29 00:51 7.82496 169.51399 29889 ft 461 kts 291°
2026-04-29 00:51 7.84866 169.45369 29889 ft 462 kts 291°
2026-04-29 00:52 7.87236 169.39338 29897 ft 461 kts 291°
2026-04-29 00:52 7.89586 169.33354 29895 ft 461 kts 291°
2026-04-29 00:53 7.91949 169.27331 29895 ft 461 kts 291°
2026-04-29 00:53 7.94313 169.21307 29894 ft 461 kts 291°
2026-04-29 00:54 7.96647 169.15354 29874 ft 448 kts 291°
2026-04-29 00:54 7.97777 169.12472 29667 ft 437 kts 291°
2026-04-29 00:54 7.98894 169.09624 29116 ft 435 kts 291°
2026-04-29 00:54 8.00008 169.06782 28446 ft 436 kts 291°
2026-04-29 00:55 8.01111 169.03964 27909 ft 435 kts 291°
2026-04-29 00:55 8.02219 169.01136 27400 ft 433 kts 291°
2026-04-29 00:55 8.03325 168.98311 26896 ft 431 kts 291°
2026-04-29 00:55 8.04422 168.95508 26396 ft 429 kts 291°
2026-04-29 00:56 8.05518 168.92708 25912 ft 427 kts 292°
2026-04-29 00:56 8.06609 168.89920 25418 ft 425 kts 292°
2026-04-29 00:56 8.07694 168.87147 24936 ft 424 kts 292°
2026-04-29 00:56 8.08762 168.84417 24461 ft 423 kts 292°
2026-04-29 00:57 8.09843 168.81651 23995 ft 421 kts 292°
2026-04-29 00:57 8.10919 168.78900 23534 ft 420 kts 292°
2026-04-29 00:57 8.11990 168.76159 22996 ft 419 kts 292°
2026-04-29 00:57 8.13056 168.73429 22514 ft 416 kts 292°
2026-04-29 00:58 8.14102 168.70755 22068 ft 413 kts 292°
2026-04-29 00:58 8.15151 168.68068 21625 ft 410 kts 292°
2026-04-29 00:58 8.16194 168.65397 21184 ft 407 kts 292°
2026-04-29 00:58 8.17228 168.62748 20746 ft 404 kts 292°
2026-04-29 00:59 8.18256 168.60115 20311 ft 402 kts 292°
2026-04-29 00:59 8.19280 168.57490 19873 ft 400 kts 292°
2026-04-29 00:59 8.20297 168.54883 19451 ft 398 kts 292°
2026-04-29 00:59 8.21312 168.52281 19023 ft 397 kts 292°
2026-04-29 01:00 8.22308 168.49729 18600 ft 395 kts 291°
2026-04-29 01:00 8.23312 168.47152 18174 ft 394 kts 291°
2026-04-29 01:00 8.24317 168.44575 17693 ft 392 kts 291°
2026-04-29 01:00 8.25313 168.42017 17247 ft 389 kts 291°
2026-04-29 01:01 8.26305 168.39472 16824 ft 386 kts 291°
2026-04-29 01:01 8.27285 168.36957 16404 ft 384 kts 290°
2026-04-29 01:01 8.28246 168.34489 15993 ft 381 kts 290°
2026-04-29 01:01 8.29215 168.32002 15579 ft 378 kts 290°
2026-04-29 01:02 8.30174 168.29539 15171 ft 376 kts 290°
2026-04-29 01:02 8.31131 168.27079 14754 ft 373 kts 290°
2026-04-29 01:02 8.32079 168.24644 14352 ft 371 kts 289°
2026-04-29 01:02 8.33022 168.22221 13943 ft 369 kts 289°
2026-04-29 01:03 8.33947 168.19844 13527 ft 367 kts 289°
2026-04-29 01:03 8.34880 168.17446 13081 ft 365 kts 289°
2026-04-29 01:03 8.35804 168.15070 12669 ft 362 kts 289°
2026-04-29 01:03 8.36721 168.12714 12270 ft 358 kts 289°
2026-04-29 01:04 8.37629 168.10377 11871 ft 355 kts 289°
2026-04-29 01:04 8.38528 168.08063 11479 ft 352 kts 289°
2026-04-29 01:04 8.39414 168.05782 11092 ft 344 kts 289°
2026-04-29 01:04 8.40266 168.03588 10717 ft 334 kts 289°
2026-04-29 01:05 8.41103 168.01436 10395 ft 322 kts 290°
2026-04-29 01:05 8.41903 167.99378 10232 ft 306 kts 289°
2026-04-29 01:05 8.42664 167.97415 10086 ft 292 kts 290°
2026-04-29 01:05 8.43395 167.95532 9942 ft 284 kts 290°
2026-04-29 01:06 8.44113 167.93682 9654 ft 282 kts 289°
2026-04-29 01:06 8.44821 167.91859 9314 ft 282 kts 289°
2026-04-29 01:06 8.45538 167.90012 8975 ft 281 kts 289°
2026-04-29 01:06 8.46249 167.88178 8671 ft 280 kts 289°
2026-04-29 01:07 8.46960 167.86347 8364 ft 278 kts 290°
2026-04-29 01:07 8.47666 167.84530 8055 ft 277 kts 289°
2026-04-29 01:07 8.48367 167.82719 7759 ft 276 kts 289°
2026-04-29 01:07 8.49056 167.80944 7458 ft 275 kts 289°
2026-04-29 01:08 8.49753 167.79146 7158 ft 274 kts 289°
2026-04-29 01:08 8.50448 167.77351 6858 ft 273 kts 290°
2026-04-29 01:08 8.51140 167.75566 6573 ft 273 kts 290°
2026-04-29 01:08 8.51835 167.73772 6247 ft 273 kts 290°
2026-04-29 01:09 8.52528 167.71979 5898 ft 274 kts 290°
2026-04-29 01:09 8.53215 167.70205 5571 ft 275 kts 291°
2026-04-29 01:09 8.53913 167.68405 5272 ft 274 kts 290°
2026-04-29 01:09 8.54609 167.66610 4971 ft 274 kts 291°
2026-04-29 01:10 8.55301 167.64820 4663 ft 273 kts 291°
2026-04-29 01:10 8.55992 167.63035 4357 ft 272 kts 291°
2026-04-29 01:10 8.56681 167.61254 4078 ft 270 kts 291°
2026-04-29 01:10 8.57355 167.59513 3971 ft 261 kts 291°
2026-04-29 01:11 8.58132 167.57930 3854 ft 251 kts 310°
2026-04-29 01:11 8.59472 167.56903 3741 ft 237 kts 339°
2026-04-29 01:11 8.60969 167.56355 3666 ft 220 kts 344°
2026-04-29 01:11 8.62375 167.55881 3538 ft 207 kts 345°
2026-04-29 01:12 8.63715 167.55441 3401 ft 197 kts 345°
2026-04-29 01:12 8.65018 167.55269 3223 ft 183 kts 14°
2026-04-29 01:12 8.66087 167.55813 3076 ft 167 kts 49°
2026-04-29 01:12 8.66694 167.56763 2994 ft 162 kts 71°
2026-04-29 01:13 8.67102 167.57826 2841 ft 161 kts 72°
2026-04-29 01:13 8.67484 167.58891 2633 ft 161 kts 73°
2026-04-29 01:13 8.67846 167.59944 2453 ft 150 kts 73°
2026-04-29 01:13 8.68201 167.60894 2383 ft 141 kts 74°
2026-04-29 01:14 8.68506 167.61815 2253 ft 138 kts 76°
2026-04-29 01:14 8.68792 167.62739 2120 ft 138 kts 76°
2026-04-29 01:14 8.69073 167.63668 1902 ft 137 kts 76°
2026-04-29 01:14 8.69345 167.64585 1638 ft 136 kts 75°
2026-04-29 01:15 8.69611 167.65506 1361 ft 136 kts 74°
2026-04-29 01:15 8.69912 167.66426 1148 ft 138 kts 73°
2026-04-29 01:15 8.70228 167.67326 989 ft 134 kts 71°
2026-04-29 01:15 8.70508 167.68215 824 ft 133 kts 73°
2026-04-29 01:16 8.70778 167.69117 668 ft 137 kts 74°
2026-04-29 01:16 8.71064 167.70062 483 ft 140 kts 76°
2026-04-29 01:16 8.71344 167.70972 296 ft 132 kts 73°
2026-04-29 01:16 8.71616 167.71844 68 ft 130 kts 73°
2026-04-29 01:17 8.71867 167.72687 -42 ft 118 kts 73°
2026-04-29 01:17 8.72039 167.73253 -45 ft 51 kts 72°
2026-04-29 01:17 8.72147 167.73605 -31 ft 53 kts 72°
2026-04-29 01:17 8.72239 167.73914 -43 ft 29 kts 72°
2026-04-29 01:18 8.72289 167.73981 -37 ft 10 kts
2026-04-29 01:18 8.72464 167.73935 -40 ft 14 kts 343°
2026-04-29 01:18 8.72565 167.73907 -40 ft 15 kts 346°
2026-04-29 01:19 8.72651 167.73917 -34 ft 10 kts 27°
2026-04-29 01:19 8.72723 167.73957 -34 ft 13 kts 32°
2026-04-29 01:19 8.72749 167.73992 -34 ft 3 kts 97°
2026-04-29 01:19 8.72738 167.74015 -48 ft 5 kts 116°
2026-04-29 01:20 8.72736 167.74021 -43 ft 0 kts 118°